Weather in Verkhny Pereval

Russia / Primorsky Krai     46°33′51″N   134°40′10″E
temp.,
°C
wind,
m/s
gust,
m/s
humid.,
%
clouds,
%
prec.,
mm/h
press.,
hPa
HPBL,
m
14 april, wed
wed1401:00−4w410590 0.0 1007692
04:00−4wsw411580 0.0 1007688
07:00−5wsw410620 0.0 1008688
10:000w51038100 0.0 10082571
13:00+1w61137100 0.0 10072535
16:00+3w51333100 0.1 10063201
19:00+1w4846100 0.0 1007589
22:00−3ssw267882 0.1 1009119
15 april, thu
thu1501:00−3ssw258374 0.0 1010116
04:00−4ssw2384100 0.0 101165
07:00−3ssw12743 0.0 101258
10:00+4wsw133313 0.0 1013711
13:00+8w36314 0.0 10131789
16:00+10wsw25285 0.0 10122213
19:00+8ese22465 0.0 101230
22:00+3ese225965 0.0 101313
16 april, fri
fri1601:00+3ese2263100 0.0 101344
04:00+3se2263100 0.0 101335
07:00+3ese226395 0.0 101334
10:00+11sse2539100 0.0 1011448
13:00+14sse6934100 0.0 10101877
16:00+14sse71033100 0.0 10082015
19:00+9sse61146100 0.0 10081275
22:00+7se4136595 0.0 1007860
17 april, sat
sat1701:00+6se297498 0.0 1005499
04:00+5se2486100 0.3 1005132
07:00+5sse31091100 2.8 1006992
10:00+6s388499 4.1 1008879
13:00+12ssw255267 0.6 10071721
16:00+13nw244167 1.4 10052079
19:00+8ene258194 1.3 1007382
22:00+6nne128980 1.6 100884
18 april, sun
sun1801:00+5n1394100 0.0 1007146
04:00+4nw2497100 0.1 1006126
07:00+3nnw3795100 0.1 1007601
10:00+3nnw4993100 1.3 1006636
13:00+3nnw3796100 2.7 1005568
16:00+5n3686100 3.1 1005774
19:00+5nw2689100 0.0 1004396
22:00+4wnw2495100 0.0 1004120